Location: La Fredeussais
(48.1780°N, 1.3980°W)
Time: 07:50:00
(UTC+00:00)

STARLINK-2736 - Pass Details

Date: 30 July 2021
Orbit: 546 x 548 km, 53.1° (Epoch: 19 September)

Event Time Altitude Azimuth Distance (km) Brightness Sun altitude
Rises 21:02:52 0° 288° (WNW) 2,715 8.4 -11.3°
Reaches altitude 10° 21:05:49 10° 266° (W) 1,817 6.9 -11.6°
Maximum altitude 21:08:18 16° 229° (SW) 1,485 5.9 -11.9°
Drops below altitude 10° 21:10:47 10° 192° (SSW) 1,809 5.9 -12.2°
Enters shadow 21:11:25 - 185° (S) 1,973 6.1 -12.3°
